BREEZE-M R/B, 45987

Orbit data source: Space-Track

BREEZE-M R/B, 45987 is space debris in HEO originally from a launch on Thu, 30 Jul 2020 UTC launched from the Tyuratam Missile And Space Complex (TTMTR). Debris objects in space refer to the collection of defunct objects orbiting the Earth. Examples of debris include non-operational satellites, rocket bodies, and fragments generated from explosions, collisions, or faulty payload assembly.

Loading next visibility...
Identifier
45987, 2020-053C
Orbit
HEO
Country
Flag of CISCIS
Related business
Manufacturer
Khrunichev
Mission
Spacecraft
Bus & Motor
BRIZ, Unknown motor
Mass
~1,600 kg wet, 1,600 kg dry
Launch date (UTC)
2020-07-30 (6 years ago)
Launch vehicle
Unknown
Launch site
Tyuratam Missile And Space Complex (TTMTR)
Object type
Payload
Rocket body
Debris
Shape & HBR
Cyl, 2.4 m
Radar Cross Section
15.135 m², Medium (>0.1 m² and < 1m²)

Expand to show TLE details & history
Last TLE update: 22 hours ago

TLE from 22 hours ago
0 BREEZE-M R/B
1 45987U 20053C   26262.84875248 -.00000179  00000-0  00000+0 0  9994
2 45987   7.7009  75.6490 4343516  84.1766 322.6245  1.03580257 23221
Epoch: 2026-09-19T20:22Z
TLE epoch observation values (Epoch: 2026-09-19T20:22:12.214Z)
Latitude
Longitude
131.59206°
Altitude
25,603.522 km
Speed
3.907 km/s
True Right ascension
05h 03m 34s
True Declination
0° 00' 00"
Sunlit
Object was in daylight at epoch
Visualization orbit readout
Latitude
Unknown
Longitude
Unknown
Altitude
Unknown
Speed
Unknown
Apparent Right ascension
Unknown
Apparent Declination
Unknown
Sunlit
N/A
Visualization observer readout
Local Sidereal Time
11:18:21
Azimuth
Unknown
Elevation
Unknown
Doppler factor
Unknown
Orbital elements
Apogee altitude
52,808.187 km
Perigee altitude
16,962.479 km
Semi-major axis
41,263.47 km
Eccentricity
0.43435
Inclination
7.7009°
RAAN
75.649°
Arg. of periapsis
84.1766°
True anomaly
276.40472°
Mean anomaly
322.6245°
Eccentric anomaly
301.37751°
Mean motion
0.25894 °/min
Orbital period
1,390.3 mins
BSTAR
0
Loading maneuver chart data...
Computing Atmospheric mass density...
Loading historical data...
Loading historical data...
Loading historical data...
Loading historical data...
Loading historical data...
Loading historical data...
Loading historical data...
Other satellites on launch #53 in the year 2020 (2020-07-30 UTC)

Documentation

Showing up to 5 results
|